Regional Weather Roundup
Issued by NWS

Home | Current Version | Previous Version | Graphics & Text | Print | Product List | Glossary Off
Versions: 1 2 3 4 5 6 7 8 9 10 11 12 13 14 15 16 17 18 19 20 21 22 23 24 25 26 27 28 29 30 31 32 33 34 35 36 37 38 39 40 41 42 43 44 45 46 47 48 49 50

000
ASUS43 KOAX 261010
RWRNE

WEATHER ROUNDUP FOR NEBRASKA
NATIONAL WEATHER SERVICE OMAHA NE
400 AM CST FRI DEC 26 2014

NOTES: SATELLITE DATA IS BEING USED TO AUGMENT CLOUD COVER ABOVE
       12000 FEET.
       "FAIR" INDICATES FEW OR NO CLOUDS BELOW 12,000 FEET WITH NO
       SIGNIFICANT WEATHER AND/OR OBSTRUCTIONS TO VISIBILITY.

  * THESE STATIONS DO NOT REPORT WEATHER SUCH AS RAIN...SNOW OR FOG.

NEZ001>004-019>022-054>056-261100-
NEBRASKA PANHANDLE

CITY           SKY/WX    TMP DP  RH WIND       PRES   REMARKS
SCOTTSBLUFF    CLOUDY    17  14  88 N7        29.96R WCI   8
ALLIANCE       CLOUDY    17  14  88 N12       29.94R WCI   4
CHADRON        LGT SNOW  20  17  88 NE6       30.01S FOG     WCI  12
KIMBALL        CLOUDY    13  12  96 N6        29.89R WCI   4
SIDNEY         CLOUDY    20  17  88 N14       29.92S WCI   7
$$

NEZ057>060-069>072-079>082-261100-
SOUTHWEST NEBRASKA

CITY           SKY/WX    TMP DP  RH WIND       PRES   REMARKS
NORTH PLATTE   CLOUDY    25  21  85 N14       29.93F WCI  13
IMPERIAL       CLOUDY    25  21  85 N12       29.93R FOG     WCI  14
LEXINGTON      CLOUDY    27  24  85 N26       29.89F WCI  12
MCCOOK         CLOUDY    27  22  81 N22G28    29.92R WCI  13
OGALLALA       CLOUDY    24  19  81 N16G24    29.93F WCI  10
$$

NEZ005>010-023>029-035>040-094-261100-
NORTH CENTRAL NEBRASKA

CITY           SKY/WX    TMP DP  RH WIND       PRES   REMARKS
VALENTINE      LGT SNOW  23  20  88 N12       30.00R FOG     WCI  12
AINSWORTH      CLOUDY    24  22  93 N10       29.99R WCI  13
BROKEN BOW     CLOUDY    25  21  85 N20G31    29.93R WCI  11
O`NEILL        CLOUDY    26  25  95 N14       29.97S WCI  15
ORD            CLOUDY    26  22  84 N17G29    29.93R WCI  13
THEDFORD       CLOUDY    24  22  89 N13G18    29.97S WCI  13
$$

NEZ041-046>049-061>064-073>077-083>087-261100-
SOUTH CENTRAL NEBRASKA

CITY           SKY/WX    TMP DP  RH WIND       PRES   REMARKS
GRAND ISLAND   CLOUDY    28  25  88 N21       29.90S WCI  15
AURORA         CLOUDY    30  29  94 N20G25    29.89R WCI  17
HASTINGS       CLOUDY    29  25  85 N23G30    29.86F WCI  15
HEBRON         CLOUDY    32  30  90 N14G25    29.88R WCI  22
HOLDREGE       CLOUDY    28  25  89 N17G26    29.88R WCI  15
KEARNEY *      CLOUDY    27  21  80 NW23G29   29.88F WCI  12
YORK           CLOUDY    32  30  93 N17G25    29.87S WCI  21
$$

NEZ011>018-030>034-042>045-261100-
NORTHEAST NEBRASKA

CITY           SKY/WX    TMP DP  RH WIND       PRES   REMARKS
NORFOLK        CLOUDY    29  27  92 N15       29.91R WCI  18
ALBION         CLOUDY    28  24  86 N16G24    29.91S WCI  16
BLAIR          CLOUDY    34  32  92 N23       29.84R WCI  22
COLUMBUS *     CLOUDY    30  25  80 N15       29.91R WCI  19
FREMONT        CLOUDY    33  32  95 NW14      29.87R WCI  24
TEKAMAH        CLOUDY    34  31  88 N21       29.87R WCI  22
WAYNE          CLOUDY    31  28  91 N17       29.91R WCI  19
$$

NEZ050>053-065>068-078-088>093-261100-
SOUTHEAST NEBRASKA

CITY           SKY/WX    TMP DP  RH WIND       PRES   REMARKS
LINCOLN        CLOUDY    34  31  88 N16       29.87R WCI  24
OMAHA EPPLEY   CLOUDY    33  31  92 N15       29.86R WCI  23
BEATRICE       CLOUDY    32  32  99 N15G22    29.85R FOG     WCI  22
FALLS CITY     CLEAR     38  29  70 VRB5      29.80R WCI  34
NEBRASKA CITY  MOCLDY    31  31 100 NW14      29.83R FOG     WCI  21
PLATTSMOUTH    CLOUDY    32  31  94 NW10G17   29.84R WCI  24
$$

NEZ044-045-051>053-067-261100-
OMAHA AREA

CITY           SKY/WX    TMP DP  RH WIND       PRES   REMARKS
OMAHA EPPLEY   CLOUDY    33  31  92 N15       29.86R WCI  23
BLAIR          CLOUDY    34  32  92 N23       29.84R WCI  22
FREMONT        CLOUDY    33  32  95 NW14      29.87R WCI  24
MILLARD        CLOUDY    34  32  91 NW10G17   29.86R WCI  26
OFFUTT AFB     CLOUDY    33  31  93 N6        29.85R WCI  28
PLATTSMOUTH    CLOUDY    32  31  94 NW10G17   29.84R WCI  24
WAHOO          CLOUDY    33  31  91 N20G26    29.86R WCI  21
$$


USA.gov is the U.S. government's official web portal to all federal, state and local government web resources and services.